Location: Blue Mountain Vista Observatory
(40.6992°N, 75.9422°W)
Time: 10:45:58
(UTC-04:00)

IDEFIX/ARIANE 42P - Visible Passes

Search period start: 23 April 2014 00:00
Search period end: 03 May 2014 00:00
Orbit: 785 x 804 km, 98.3° (Epoch: 22 April)

Date Brightness Start Highest point End Pass type
(mag) Time Alt. Az. Time Alt. Az. Time Alt. Az.
23 Apr 2.5 20:49:20 10° SSE 20:54:29 75° ENE 20:59:40 10° N visible
23 Apr 5.2 22:32:31 10° WSW 22:34:38 12° W 22:36:46 10° WNW visible
24 Apr 3.1 20:21:42 10° SE 20:26:31 41° ENE 20:31:21 10° N visible
24 Apr 4.6 22:02:11 10° SW 22:06:15 23° W 22:10:21 10° NW visible
25 Apr 3.6 21:33:07 10° S 21:38:00 42° W 21:42:55 10° NNW visible
26 Apr 2.7 21:04:41 10° S 21:09:51 79° WSW 21:15:03 10° NNW visible
27 Apr 2.7 20:36:46 10° SSE 20:41:49 58° ENE 20:46:54 10° N visible
27 Apr 5.0 22:18:34 10° SW 22:21:48 17° W 22:25:02 10° NW visible
28 Apr 4.2 21:48:58 10° SSW 21:53:28 30° W 21:58:00 10° NW visible
29 Apr 3.2 21:20:12 10° S 21:25:15 56° W 21:30:21 10° NNW visible
30 Apr 2.5 20:52:00 10° SSE 20:57:09 81° ENE 21:02:21 10° N visible
30 Apr 5.3 22:35:46 10° WSW 22:37:22 11° W 22:38:58 10° WNW visible
01 May 3.0 20:24:17 10° SE 20:29:10 44° ENE 20:34:05 10° N visible
01 May 4.7 22:05:03 10° SW 22:08:58 22° W 22:12:55 10° NW visible
02 May 3.8 21:35:53 10° SSW 21:40:41 39° W 21:45:32 10° NNW visible
